This is the latest recevied weather packets stored in our database for station/object KB3VSP. If no packets are shown the sender has not sent any weather packets the latest 10 day(s).
| Time | Temp. | Humidity | Pressure | Rain* | Wind** | Luminosity | Snow |
|---|---|---|---|---|---|---|---|
| 1777578358 | 8.89° C | 73% | 1014.2 hPa | 0 mm | - | 121 W/m² | - |
| 1777578055 | 8.89° C | 73% | 1014.2 hPa | 0 mm | - | 123 W/m² | - |
| 1777577750 | 8.89° C | 73% | 1013.9 hPa | 0 mm | - | 82 W/m² | - |
| 1777577446 | 8.89° C | 74% | 1014 hPa | 0 mm | - | 55 W/m² | - |
| 1777577144 | 8.89° C | 72% | 1014 hPa | 0 mm | - | 100 W/m² | - |
| 1777576840 | 8.89° C | 74% | 1014.2 hPa | 0 mm | - | 149 W/m² | - |
| 1777576539 | 8.89° C | 74% | 1014.3 hPa | 0 mm | - | 148 W/m² | - |
| 1777576236 | 8.33° C | 73% | 1014.2 hPa | 0 mm | - | 107 W/m² | - |
| 1777575932 | 8.33° C | 73% | 1014.2 hPa | 0 mm | - | 76 W/m² | - |
| 1777575628 | 8.89° C | 74% | 1014.2 hPa | 0 mm | - | 85 W/m² | - |
| 1777575324 | 8.89° C | 76% | 1014.3 hPa | 0 mm | - | 84 W/m² | - |
| 1777575020 | 8.33° C | 75% | 1014.1 hPa | 0 mm | - | 109 W/m² | - |
| 1777574716 | 8.33° C | 78% | 1014.1 hPa | 0 mm | - | 140 W/m² | - |
| 1777574414 | 8.33° C | 76% | 1014.1 hPa | 0 mm | - | 143 W/m² | - |
| 1777574109 | 8.33° C | 76% | 1014.2 hPa | 0 mm | - | 66 W/m² | - |
| 1777573805 | 8.33° C | 75% | 1014.2 hPa | 0 mm | - | 57 W/m² | - |
| 1777573500 | 8.33° C | 76% | 1014.3 hPa | 0 mm | - | 86 W/m² | - |
| 1777573196 | 8.33° C | 76% | 1014.1 hPa | 0 mm | - | 149 W/m² | - |
| 1777572893 | 8.33° C | 77% | 1014.1 hPa | 0 mm | - | 186 W/m² | - |
| 1777572589 | 7.78° C | 78% | 1013.9 hPa | 0 mm | - | 113 W/m² | - |
| 1777572283 | 7.78° C | 77% | 1014.1 hPa | 0 mm | - | 85 W/m² | - |
| 1777571974 | 8.33° C | 76% | 1014.1 hPa | 0 mm | - | 108 W/m² | - |
| 1777571674 | 7.78° C | 77% | 1014.1 hPa | 0 mm | - | 186 W/m² | - |
| 1777571372 | 7.78° C | 76% | 1013.8 hPa | 0 mm | - | 80 W/m² | - |
| 1777571068 | 8.33° C | 77% | 1014.2 hPa | 0 mm | - | 105 W/m² | - |
* Rain latest hour (hover to see other rain measurements)
** Current wind speed in m/s (hover to see current wind gust speed)